Weather History for Lumberton, NC

Change the Weather History Date:

Wednesday, February 12, 2014

  Actual Average Record
Temperature  
Mean Temperature 30 °F 46 °F  
Max Temperature 33 °F 57 °F 70 °F (2009)
Min Temperature 26 °F 35 °F 23 °F (2012)
Degree Days  
Heating Degree Days 35 19  
Month to date heating degree days 261 238  
Since 1 July heating degree days 2030 1957  
Cooling Degree Days 0 0  
Month to date cooling degree days 0 0  
Year to date cooling degree days 0 1  
Moisture  
Dew Point 26 °F    
Average Humidity 82    
Maximum Humidity 100    
Minimum Humidity 63    
Precipitation  
Precipitation 0.85 in 0.10 in 0.95 in (2004)
Month to date precipitation 1.87 1.10  
Year to date precipitation 4.94 4.07  
Sea Level Pressure  
Sea Level Pressure 30.07 in    
Wind  
Wind Speed 13 mph (NNE)    
Max Wind Speed 26 mph    
Max Gust Speed 33 mph    
Visibility 3 miles    
Events Rain , Snow    
T = Trace of Precipitation, MM = Missing Value Source: NWS Daily Summary

Daily Weather History Graph

Daily Weather History Graph

Search for Another Location

Airport:

Trip Planner

Search our weather history database for the weather conditions in past years. The results will help you decide how hot, cold, wet, or windy it might be!

Date:

Astronomy

Feb. 12, 2014 Rise Set
Actual Time 7:04 AM EST 5:56 PM EST
Civil Twilight 6:38 AM EST 6:22 PM EST
Nautical Twilight 6:09 AM EST 6:52 PM EST
Astronomical Twilight 5:39 AM EST 7:21 PM EST
Moon 4:10 PM EST (2/12) 5:18 AM EST (2/12)
Length of Visible Light 11h 43m
Length of Day
10h 51m
Waxing Gibbous, 95% of the Moon is Illuminated
Feb 12
Waxing Gibbous
Feb 14
Full
Feb 22
Last Quarter
Mar 1
New
Mar 8
First Quarter

Hourly Weather History & Observations

Time (EST) Temp. Windchill Dew Point Humidity Pressure Visibility Wind Dir Wind Speed Gust Speed Precip Events Conditions
12:54 AM 28.9 °F 19.8 °F 23.0 °F 78% 30.36 in 5.0 mi NE 10.4 mph - N/A   Haze
1:54 AM 28.9 °F 21.1 °F 23.0 °F 78% 30.36 in 6.0 mi NE 8.1 mph - N/A   Haze
2:54 AM 28.9 °F 19.8 °F 21.9 °F 75% 30.34 in 6.0 mi NE 10.4 mph - N/A   Haze
3:54 AM 28.9 °F 20.4 °F 19.9 °F 69% 30.34 in 8.0 mi NE 9.2 mph - N/A   Overcast
4:54 AM 28.0 °F 18.6 °F 18.0 °F 66% 30.36 in 10.0 mi NE 10.4 mph - N/A   Overcast
5:54 AM 28.0 °F 18.6 °F 18.0 °F 66% 30.34 in 10.0 mi NE 10.4 mph - N/A   Overcast
6:54 AM 27.0 °F 17.3 °F 17.1 °F 66% 30.34 in 10.0 mi NE 10.4 mph - N/A   Overcast
7:54 AM 27.0 °F 18.7 °F 16.0 °F 63% 30.37 in 10.0 mi NE 8.1 mph - N/A   Overcast
8:39 AM 27.0 °F 17.3 °F 18.0 °F 69% 30.37 in 2.0 mi NE 10.4 mph - 0.00 in Snow Light Snow
8:54 AM 27.0 °F 16.1 °F 19.0 °F 72% 30.37 in 3.0 mi NE 12.7 mph 18.4 mph 0.00 in Snow Light Snow
9:11 AM 26.1 °F 14.5 °F 19.0 °F 75% 30.35 in 1.5 mi NNE 13.8 mph - 0.01 in Snow Light Snow
9:34 AM 26.1 °F 13.1 °F 19.9 °F 78% 30.32 in 2.0 mi NNE 17.3 mph - 0.03 in Snow Light Snow
9:48 AM 26.6 °F 14.3 °F 19.4 °F 74% 30.32 in 3.0 mi NE 16.1 mph 23.0 mph 0.04 in Rain Light Freezing Rain
9:49 AM 27.0 °F 14.3 °F 19.9 °F 75% 30.33 in 3.0 mi NE 17.3 mph 24.2 mph 0.04 in Rain Light Freezing Rain
10:10 AM 27.0 °F 14.3 °F 19.9 °F 75% 30.32 in 3.0 mi NE 17.3 mph 24.2 mph 0.03 in Rain Light Freezing Rain
10:24 AM 27.0 °F 15.6 °F 19.9 °F 75% 30.35 in 2.5 mi NE 13.8 mph 19.6 mph 0.06 in Rain Light Freezing Rain
10:40 AM 27.0 °F 16.7 °F 21.0 °F 78% 30.33 in 1.8 mi NE 11.5 mph - 0.11 in Rain Light Freezing Rain
10:54 AM 27.0 °F 15.2 °F 21.0 °F 78% 30.33 in 2.5 mi NE 15.0 mph - 0.13 in Rain Light Freezing Rain
11:54 AM 27.0 °F 15.2 °F 24.1 °F 89% 30.30 in 1.8 mi NNE 15.0 mph - 0.11 in Rain Light Freezing Rain
12:05 PM 27.0 °F 14.7 °F 24.1 °F 89% 30.28 in 1.5 mi NNE 16.1 mph - 0.02 in Rain Light Freezing Rain
12:21 PM 27.0 °F 14.3 °F 24.1 °F 89% 30.27 in 1.8 mi NNE 17.3 mph - 0.04 in   Overcast
12:40 PM 27.0 °F 15.2 °F 24.1 °F 89% 30.24 in 2.0 mi NNE 15.0 mph - 0.06 in   Overcast
12:52 PM 28.4 °F 15.1 °F 24.8 °F 86% 30.21 in 1.8 mi NNE 20.7 mph 25.3 mph 0.07 in   Overcast
12:54 PM 28.0 °F 14.3 °F 24.1 °F 85% 30.21 in 1.8 mi NNE 21.9 mph 27.6 mph 0.07 in Rain Light Freezing Rain
12:56 PM 28.0 °F 14.9 °F 24.1 °F 85% 30.20 in 2.0 mi NNE 19.6 mph 27.6 mph 0.00 in Rain Light Freezing Rain
1:06 PM 28.0 °F 16.1 °F 25.0 °F 88% 30.19 in 2.5 mi NE 16.1 mph 27.6 mph 0.01 in Rain Light Freezing Rain
1:16 PM 28.0 °F 16.5 °F 25.0 °F 88% 30.18 in 1.8 mi NNE 15.0 mph 23.0 mph 0.02 in Rain Light Freezing Rain
1:24 PM 28.0 °F 18.1 °F 25.0 °F 88% 30.18 in 2.0 mi NE 11.5 mph 23.0 mph 0.03 in Rain Light Freezing Rain
1:31 PM 28.9 °F 16.9 °F 26.1 °F 89% 30.17 in 2.0 mi NNE 17.3 mph - 0.04 in Rain Light Freezing Rain
1:35 PM 28.9 °F 17.3 °F 26.1 °F 89% 30.17 in 1.8 mi NNE 16.1 mph - 0.04 in Rain Light Freezing Rain
1:52 PM 28.4 °F 19.1 °F 26.6 °F 93% 30.16 in 1.5 mi NE 10.4 mph 20.7 mph 0.08 in Rain Light Freezing Rain
1:54 PM 28.9 °F 19.2 °F 26.1 °F 89% 30.17 in 1.5 mi NE 11.5 mph 20.7 mph 0.08 in Rain Light Freezing Rain
2:42 PM 28.9 °F 16.5 °F 27.0 °F 92% 30.12 in 2.0 mi NNE 18.4 mph 28.8 mph 0.07 in Rain Light Freezing Rain
2:51 PM 28.4 °F 16.6 °F 26.6 °F 93% 30.12 in 1.8 mi NNE 16.1 mph 26.5 mph 0.08 in Rain Light Freezing Rain
2:52 PM 28.9 °F 17.3 °F 27.0 °F 92% 30.12 in 1.8 mi NE 16.1 mph 24.2 mph 0.08 in Rain Light Freezing Rain
3:02 PM 30.0 °F 18.3 °F 27.0 °F 88% 30.10 in 2.0 mi NNE 17.3 mph 27.6 mph 0.01 in Rain Light Freezing Rain
3:13 PM 30.0 °F 18.7 °F 27.0 °F 88% 30.08 in 1.8 mi NE 16.1 mph 27.6 mph 0.02 in Rain Light Freezing Rain
3:29 PM 30.0 °F 18.3 °F 27.0 °F 88% 30.07 in 2.0 mi NE 17.3 mph - 0.04 in Rain Light Freezing Rain
3:36 PM 30.0 °F 18.7 °F 27.0 °F 88% 30.07 in 2.0 mi NE 16.1 mph - 0.04 in Rain Light Freezing Rain
3:43 PM 30.0 °F 17.9 °F 28.0 °F 92% 30.06 in 1.8 mi NE 18.4 mph 25.3 mph 0.05 in Rain Light Freezing Rain
3:46 PM 30.0 °F 17.2 °F 28.0 °F 92% 30.05 in 2.0 mi NNE 20.7 mph - 0.05 in Rain Light Freezing Rain
3:54 PM 30.0 °F 17.9 °F 28.0 °F 92% 30.05 in 2.0 mi NE 18.4 mph 26.5 mph 0.06 in Rain Light Freezing Rain
4:12 PM 30.9 °F 19.1 °F 28.0 °F 89% 30.03 in 2.5 mi NNE 18.4 mph 26.5 mph 0.01 in Rain Light Freezing Rain
4:23 PM 30.9 °F 19.4 °F 28.0 °F 89% 30.02 in 2.0 mi NE 17.3 mph 26.5 mph 0.03 in Rain Light Freezing Rain
4:30 PM 30.9 °F 18.7 °F 28.0 °F 89% 30.01 in 1.8 mi NE 19.6 mph 27.6 mph 0.04 in Rain Light Freezing Rain
4:37 PM 30.9 °F 20.7 °F 28.9 °F 92% 30.02 in 2.0 mi NE 13.8 mph 27.6 mph 0.04 in Rain Light Freezing Rain
4:44 PM 30.9 °F 18.4 °F 28.9 °F 92% 29.99 in 1.8 mi NE 20.7 mph 26.5 mph 0.05 in Rain Light Freezing Rain
4:54 PM 30.9 °F 19.8 °F 28.9 °F 92% 30.02 in 1.5 mi NNE 16.1 mph 31.1 mph 0.08 in Rain Light Freezing Rain
5:05 PM 30.9 °F 16.9 °F 28.9 °F 92% 30.01 in 1.8 mi NNE 26.5 mph 33.4 mph 0.01 in Rain Light Freezing Rain
5:10 PM 30.9 °F 18.7 °F 28.9 °F 92% 30.00 in 3.0 mi NE 19.6 mph 33.4 mph 0.01 in Rain Light Freezing Rain
5:16 PM 30.9 °F 20.7 °F 28.9 °F 92% 30.00 in 2.5 mi NNE 13.8 mph 31.1 mph 0.02 in Rain Light Freezing Rain
5:21 PM 30.9 °F 19.4 °F 28.9 °F 92% 30.00 in 1.8 mi NNE 17.3 mph 25.3 mph 0.03 in Rain Light Freezing Rain
5:28 PM 30.9 °F 20.7 °F 28.0 °F 89% 30.00 in 1.0 mi NNE 13.8 mph 25.3 mph 0.05 in Rain Light Freezing Rain
5:38 PM 30.9 °F 18.7 °F 28.0 °F 89% 29.98 in 1.0 mi NE 19.6 mph 29.9 mph 0.05 in   Overcast
5:45 PM 30.0 °F 17.9 °F 28.0 °F 92% 29.97 in 1.2 mi ENE 18.4 mph 29.9 mph 0.06 in   Overcast
5:52 PM 30.2 °F 17.1 °F 26.6 °F 86% 29.95 in 1.5 mi ENE 21.9 mph 31.1 mph 0.06 in   Overcast
5:54 PM 30.0 °F 17.2 °F 27.0 °F 88% 29.96 in 1.5 mi ENE 20.7 mph 31.1 mph 0.06 in   Overcast
5:58 PM 30.0 °F 17.9 °F 27.0 °F 88% 29.96 in 2.0 mi NE 18.4 mph 31.1 mph 0.00 in   Overcast
6:08 PM 30.0 °F 18.3 °F 27.0 °F 88% 29.98 in 3.0 mi NNE 17.3 mph 26.5 mph 0.00 in   Overcast
6:16 PM 30.0 °F 19.5 °F 28.0 °F 92% 29.99 in 3.0 mi NNE 13.8 mph - 0.00 in   Overcast
6:36 PM 30.0 °F 18.7 °F 27.0 °F 88% 29.96 in 2.5 mi NE 16.1 mph - 0.01 in Rain Light Freezing Rain
6:40 PM 30.0 °F 18.3 °F 28.0 °F 92% 29.95 in 1.5 mi NE 17.3 mph - 0.02 in Rain Light Freezing Rain
6:48 PM 30.2 °F 20.2 °F 28.4 °F 93% 29.96 in 1.5 mi NE 12.7 mph 24.2 mph 0.02 in Rain Light Freezing Rain
6:54 PM 30.0 °F 20.5 °F 28.0 °F 92% 29.96 in 1.5 mi NNE 11.5 mph 21.9 mph 0.03 in Rain Light Freezing Rain
7:01 PM 30.0 °F 19.5 °F 28.0 °F 92% 29.95 in 1.8 mi NE 13.8 mph 23.0 mph 0.00 in Rain Light Freezing Rain
7:09 PM 30.0 °F 19.1 °F 28.0 °F 92% 29.96 in 1.8 mi NNE 15.0 mph - 0.00 in Rain Light Freezing Rain
7:20 PM 30.0 °F 21.1 °F 28.0 °F 92% 29.97 in 1.8 mi North 10.4 mph 18.4 mph 0.00 in   Overcast
7:29 PM 30.0 °F 19.1 °F 28.0 °F 92% 29.94 in 1.5 mi NNE 15.0 mph - 0.00 in Rain Light Freezing Rain
7:54 PM 30.0 °F 19.5 °F 28.0 °F 92% 29.93 in 1.5 mi NNE 13.8 mph - 0.01 in Rain Light Freezing Rain
7:58 PM 30.0 °F 19.5 °F 28.0 °F 92% 29.92 in 2.0 mi NNE 13.8 mph - 0.00 in Rain Light Freezing Rain
8:06 PM 30.0 °F 19.1 °F 28.0 °F 92% 29.92 in 2.5 mi NNE 15.0 mph - 0.00 in   Overcast
8:13 PM 30.0 °F 18.7 °F 28.0 °F 92% 29.91 in 3.0 mi NNE 16.1 mph - 0.00 in   Overcast
8:23 PM 30.0 °F 19.5 °F 28.0 °F 92% 29.90 in 2.5 mi NNE 13.8 mph - 0.00 in Rain Light Freezing Rain
8:45 PM 30.0 °F 21.7 °F 28.9 °F 96% 29.89 in 4.0 mi North 9.2 mph 19.6 mph 0.00 in Rain Light Freezing Rain
8:54 PM 30.0 °F 19.5 °F 28.9 °F 96% 29.90 in 2.5 mi North 13.8 mph - 0.01 in Rain Light Freezing Rain
9:03 PM 30.9 °F 21.2 °F 28.9 °F 92% 29.88 in 2.5 mi North 12.7 mph - 0.01 in Rain Light Freezing Rain
9:11 PM 30.9 °F 19.8 °F 28.9 °F 92% 29.86 in 2.0 mi NNE 16.1 mph - 0.02 in   Overcast
9:32 PM 30.9 °F 20.7 °F 28.9 °F 92% 29.84 in 1.8 mi NNE 13.8 mph - 0.04 in   Overcast
9:37 PM 30.9 °F 21.2 °F 28.9 °F 92% 29.84 in 3.0 mi NNE 12.7 mph - 0.04 in   Overcast
9:51 PM 30.2 °F 19.8 °F 30.2 °F 100% 29.82 in 1.8 mi NNE 13.8 mph - 0.05 in   Overcast
9:54 PM 30.9 °F 20.7 °F 30.0 °F 96% 29.82 in 1.5 mi NNE 13.8 mph - 0.06 in   Overcast
10:01 PM 32.0 °F 22.5 °F 30.0 °F 92% 29.81 in 2.0 mi NNE 12.7 mph - 0.01 in   Overcast
10:11 PM 32.0 °F 23.0 °F 30.0 °F 92% 29.81 in 5.0 mi NNE 11.5 mph - 0.01 in   Overcast
10:37 PM 32.0 °F 24.2 °F 30.0 °F 92% 29.79 in 6.0 mi North 9.2 mph - 0.01 in   Overcast
10:54 PM 32.0 °F 24.2 °F 30.9 °F 96% 29.77 in 6.0 mi North 9.2 mph - 0.01 in   Overcast
11:10 PM 32.0 °F 23.0 °F 30.9 °F 96% 29.75 in 5.0 mi North 11.5 mph - N/A   Overcast
11:35 PM 33.1 °F 25.5 °F 30.9 °F 92% 29.76 in 2.5 mi North 9.2 mph - 0.01 in   Overcast
11:54 PM 33.1 °F 24.4 °F 30.9 °F 92% 29.73 in 3.0 mi NNE 11.5 mph - 0.02 in Rain Light Rain